Flag for U.S.A. Weather past 2 weeks in Bakersfield, California, U.S.A.

Now
90 °F

Sunny.


Feels Like: 87 °F
Forecast: 78 / 101 °F
Wind: No wind

Location: Meadows Field

Current Time: Jul 30, 2014 at 10:26:46 AM

Latest Report: Jul 30, 2014 at 9:54 AM


Visibility: 10 mi

Pressure: 29.93 "Hg

Humidity: 27%

Dew point: 52 °F

Location of BakersfieldLocation

Historic Weather in Bakersfield — Graph

°F

Bakersfield temperature yesterday

Maximum temperature yesterday: 101 °F (at 3:54 PM)
Minimum temperature yesterday: 78 °F (at 2:54 AM)
Average temperature yesterday: 89 °F

Past Weeks' High & Low Weather Summary

 TemperatureHumidityPressure
High105 °F (Jul 26, 4:54 PM)68% (Jul 23, 5:54 AM)30.12 "Hg (Jul 23, 5:54 AM)
Low67 °F (Jul 23, 5:54 AM)9% (Jul 28, 3:54 PM)29.75 "Hg (Jul 25, 5:54 PM)
Average86 °F33%29.90 "Hg
* Reported Jul 15 8:54 AM — Jul 30 8:54 AM, Bakersfield, Weather by CustomWeather, © 2014

Note: Actual official high and low records may vary slightly from our data, if they occured in-between our weather recording intervals... More about our weather records

Advertising

Bakersfield weather history for previous 24 hours

 ConditionsComfort  
Time TempWeatherWind HumidityBarometerVisibility
8:54 AM
Jul 30
85 °FSunny.6 mph37%29.94 "Hg10 mi
7:54 AM85 °FSunny.3 mph35%29.94 "Hg10 mi
6:54 AM83 °FClear.5 mph38%29.93 "Hg10 mi
5:54 AM83 °FClear.No wind40%29.92 "Hg10 mi
4:54 AM84 °FClear.5 mph36%29.90 "Hg10 mi
3:54 AM82 °FClear.3 mph43%29.91 "Hg10 mi
2:54 AM82 °FClear.5 mph43%29.90 "Hg10 mi
1:54 AM84 °FClear.5 mph38%29.90 "Hg10 mi
12:54 AM87 °FClear.No wind27%29.90 "Hg10 mi
11:54 PM
Jul 29
89 °FClear.8 mph28%29.91 "Hg10 mi
10:54 PM86 °FClear.6 mph36%29.91 "Hg10 mi
9:54 PM90 °FClear.5 mph24%29.90 "Hg10 mi
8:54 PM93 °FSunny.5 mph22%29.89 "Hg10 mi
7:54 PM98 °FSunny.6 mph16%29.87 "Hg10 mi
6:54 PM98 °FSunny.8 mph19%29.87 "Hg10 mi
5:54 PM99 °FSunny.10 mph17%29.87 "Hg10 mi
4:54 PM101 °FSunny.9 mph15%29.88 "Hg10 mi
3:54 PM101 °FSunny.10 mph13%29.90 "Hg10 mi
2:54 PM100 °FSunny.9 mph15%29.92 "Hg10 mi
1:54 PM99 °FSunny.7 mph16%29.94 "Hg10 mi
12:54 PM97 °FSunny.6 mph16%29.96 "Hg10 mi
11:54 AM94 °FSunny.5 mph19%29.98 "Hg10 mi
10:54 AM92 °FSunny.3 mph21%29.99 "Hg10 mi
Weather by CustomWeather, © 2014

See weather overviewHow to use our weather pages